Precipitable_Water
0.97 0.94 0.99 0.96 0.95 0.93 0.96 0.98 0.99 1.02 1.03 1.05 1.04 1.02 1.02 1.05 1.09 1.13 1.21 1.23 1.24 1.19 1.15 1.19 1.22 1.24 1.26 1.25 1.25 1.29 1.26 1.25 1.31 1.36 1.40 1.40 1.38 1.32 1.32 1.33 1.28 1.32 1.34 1.31 1.31 1.29 1.21 1.13 1.16 1.20 1.21 1.13 1.14 1.24 1.26 1.26 1.25 1.22 1.19 1.18 1.12 1.12 1.04 1.02 0.97 0.95 1.11 1.19 1.20 1.26 1.31 1.33 1.27 1.31 1.29 1.31 1.33 1.32 1.30 1.27 1.27 1.25 1.25 1.29 1.29
1.02 0.96 0.94 0.90 0.90 0.93 0.96 0.97 0.98 0.99 0.99 1.01 1.01 1.03 1.07 1.08 1.09 1.16 1.18 1.21 1.25 1.22 1.14 1.15 1.21 1.27 1.27 1.26 1.27 1.31 1.30 1.24 1.24 1.26 1.28 1.31 1.33 1.31 1.28 1.32 1.28 1.27 1.30 1.27 1.27 1.28 1.27 1.17 1.12 1.21 1.24 1.20 1.17 1.15 1.20 1.22 1.21 1.17 1.16 1.13 1.12 1.12 1.14 1.03 0.98 0.95 0.92 1.16 1.14 1.22 1.28 1.37 1.26 1.35 1.28 1.28 1.33 1.34 1.30 1.27 1.28 1.30 1.25 1.26 1.28
1.13 1.04 0.96 0.92 0.89 0.91 0.93 0.93 0.95 0.96 0.96 0.96 0.97 1.00 1.06 1.08 1.10 1.12 1.15 1.20 1.25 1.25 1.22 1.16 1.17 1.25 1.27 1.29 1.28 1.28 1.29 1.26 1.24 1.22 1.21 1.23 1.23 1.25 1.24 1.26 1.27 1.24 1.23 1.24 1.26 1.28 1.25 1.20 1.14 1.17 1.25 1.22 1.21 1.18 1.18 1.19 1.20 1.17 1.15 1.15 1.11 1.12 1.16 1.13 1.04 0.95 0.93 1.00 1.15 1.13 1.12 1.24 1.25 1.31 1.34 1.34 1.35 1.38 1.28 1.28 1.28 1.29 1.30 1.31 1.29
1.33 1.16 1.06 1.00 0.97 0.96 0.95 0.98 0.95 0.95 0.98 0.98 0.97 0.98 1.04 1.07 1.11 1.11 1.15 1.20 1.22 1.25 1.28 1.25 1.21 1.21 1.23 1.27 1.29 1.25 1.26 1.26 1.24 1.23 1.20 1.17 1.18 1.21 1.22 1.22 1.24 1.26 1.24 1.22 1.24 1.25 1.23 1.19 1.16 1.16 1.18 1.21 1.23 1.22 1.22 1.22 1.17 1.18 1.17 1.18 1.15 1.12 1.14 1.16 1.14 1.05 1.03 0.95 1.11 1.13 1.19 1.14 1.20 1.32 1.37 1.37 1.30 1.29 1.33 1.32 1.33 1.28 1.28 1.35 1.35
1.47 1.35 1.19 1.11 1.08 1.03 0.99 1.00 1.00 0.99 0.99 1.00 1.01 1.01 1.06 1.12 1.17 1.13 1.15 1.18 1.26 1.26 1.26 1.30 1.27 1.23 1.19 1.21 1.25 1.24 1.21 1.24 1.22 1.22 1.23 1.21 1.17 1.18 1.20 1.19 1.21 1.24 1.25 1.24 1.22 1.22 1.23 1.19 1.18 1.18 1.16 1.15 1.22 1.22 1.22 1.20 1.18 1.17 1.18 1.19 1.18 1.17 1.17 1.19 1.17 1.14 1.08 1.02 1.04 1.15 1.24 1.29 1.31 1.30 1.32 1.30 1.31 1.28 1.31 1.31 1.33 1.32 1.32 1.35 1.39
1.52 1.49 1.38 1.21 1.11 1.09 1.09 1.05 1.04 1.05 1.05 1.04 1.05 1.07 1.10 1.14 1.22 1.20 1.23 1.17 1.23 1.26 1.25 1.25 1.26 1.23 1.20 1.19 1.22 1.24 1.23 1.22 1.22 1.21 1.21 1.23 1.21 1.19 1.20 1.20 1.20 1.23 1.24 1.25 1.25 1.23 1.22 1.23 1.22 1.20 1.18 1.14 1.15 1.18 1.20 1.18 1.19 1.17 1.18 1.20 1.21 1.20 1.17 1.17 1.21 1.19 1.12 1.07 1.07 1.08 1.17 1.16 1.25 1.31 1.33 1.32 1.28 1.24 1.24 1.29 1.36 1.37 1.34 1.32 1.34
1.53 1.52 1.49 1.39 1.23 1.17 1.14 1.11 1.11 1.12 1.08 1.10 1.11 1.14 1.16 1.18 1.23 1.24 1.23 1.23 1.20 1.20 1.27 1.21 1.24 1.24 1.22 1.20 1.18 1.20 1.21 1.20 1.21 1.23 1.22 1.24 1.24 1.19 1.17 1.18 1.21 1.24 1.26 1.26 1.28 1.27 1.24 1.25 1.24 1.22 1.17 1.16 1.16 1.16 1.18 1.17 1.16 1.16 1.17 1.19 1.22 1.20 1.17 1.15 1.16 1.17 1.16 1.11 1.10 1.10 1.11 1.21 1.22 1.20 1.32 1.37 1.34 1.32 1.26 1.26 1.24 1.29 1.30 1.30 1.31
1.50 1.51 1.54 1.49 1.42 1.29 1.24 1.18 1.16 1.17 1.18 1.13 1.17 1.18 1.22 1.19 1.21 1.27 1.34 1.28 1.26 1.20 1.21 1.25 1.23 1.25 1.26 1.22 1.21 1.22 1.21 1.19 1.20 1.22 1.22 1.24 1.28 1.24 1.18 1.16 1.16 1.22 1.27 1.29 1.28 1.26 1.25 1.24 1.24 1.23 1.21 1.19 1.16 1.17 1.19 1.16 1.16 1.14 1.19 1.20 1.20 1.19 1.16 1.17 1.15 1.13 1.13 1.13 1.11 1.10 1.09 1.08 1.18 1.23 1.33 1.35 1.30 1.30 1.33 1.29 1.20 1.21 1.22 1.31 1.33
1.48 1.49 1.52 1.51 1.49 1.47 1.41 1.32 1.24 1.22 1.24 1.20 1.16 1.18 1.22 1.23 1.23 1.26 1.34 1.34 1.33 1.30 1.23 1.31 1.35 1.26 1.26 1.28 1.26 1.25 1.21 1.18 1.17 1.19 1.20 1.21 1.24 1.23 1.20 1.15 1.12 1.15 1.22 1.28 1.30 1.27 1.25 1.25 1.25 1.24 1.22 1.21 1.19 1.16 1.16 1.18 1.15 1.11 1.15 1.18 1.16 1.15 1.15 1.16 1.16 1.13 1.10 1.09 1.11 1.17 1.16 1.12 1.10 1.16 1.18 1.22 1.21 1.22 1.33 1.34 1.27 1.30 1.33 1.34 1.38
1.47 1.46 1.49 1.51 1.56 1.58 1.55 1.48 1.38 1.30 1.27 1.24 1.20 1.18 1.20 1.24 1.25 1.26 1.29 1.35 1.38 1.41 1.38 1.31 1.37 1.36 1.30 1.31 1.32 1.29 1.24 1.21 1.17 1.16 1.17 1.16 1.15 1.16 1.17 1.15 1.11 1.11 1.14 1.20 1.26 1.28 1.25 1.26 1.26 1.23 1.23 1.21 1.20 1.18 1.16 1.16 1.17 1.15 1.12 1.13 1.12 1.11 1.10 1.10 1.11 1.12 1.09 1.05 1.05 1.11 1.10 1.11 1.14 1.15 1.18 1.25 1.33 1.40 1.39 1.40 1.31 1.31 1.33 1.33 1.37
1.48 1.44 1.45 1.55 1.59 1.59 1.58 1.57 1.54 1.43 1.36 1.31 1.27 1.23 1.22 1.24 1.24 1.26 1.28 1.33 1.38 1.44 1.47 1.43 1.36 1.43 1.41 1.37 1.34 1.31 1.27 1.23 1.17 1.13 1.11 1.09 1.08 1.07 1.08 1.13 1.13 1.09 1.09 1.12 1.14 1.22 1.28 1.29 1.29 1.27 1.24 1.23 1.23 1.22 1.19 1.17 1.17 1.17 1.17 1.17 1.15 1.10 1.07 1.07 1.08 1.10 1.09 1.06 1.09 1.10 1.10 1.10 1.15 1.21 1.22 1.28 1.35 1.38 1.41 1.44 1.42 1.39 1.30 1.24 1.17
1.43 1.45 1.48 1.54 1.56 1.55 1.57 1.59 1.59 1.55 1.51 1.44 1.39 1.33 1.29 1.26 1.26 1.26 1.29 1.31 1.38 1.46 1.48 1.46 1.43 1.39 1.45 1.47 1.44 1.39 1.34 1.31 1.26 1.18 1.13 1.09 1.08 1.07 1.08 1.09 1.13 1.12 1.08 1.10 1.14 1.18 1.22 1.29 1.31 1.29 1.27 1.24 1.22 1.22 1.22 1.20 1.19 1.20 1.20 1.20 1.19 1.19 1.18 1.12 1.08 1.08 1.11 1.09 1.07 1.08 1.10 1.11 1.16 1.20 1.25 1.31 1.34 1.41 1.47 1.48 1.45 1.40 1.35 1.29 1.26
1.43 1.45 1.49 1.51 1.53 1.53 1.55 1.57 1.59 1.60 1.60 1.57 1.54 1.49 1.41 1.36 1.32 1.30 1.29 1.32 1.39 1.41 1.43 1.45 1.44 1.42 1.39 1.43 1.46 1.50 1.49 1.48 1.43 1.37 1.30 1.24 1.19 1.16 1.13 1.11 1.09 1.11 1.12 1.09 1.10 1.14 1.17 1.21 1.25 1.29 1.26 1.27 1.28 1.25 1.21 1.20 1.21 1.23 1.24 1.25 1.24 1.23 1.23 1.24 1.26 1.20 1.19 1.14 1.09 1.09 1.11 1.15 1.16 1.21 1.28 1.34 1.44 1.39 1.45 1.45 1.46 1.45 1.41 1.34 1.31
1.37 1.41 1.45 1.48 1.50 1.52 1.51 1.51 1.54 1.60 1.65 1.67 1.64 1.58 1.49 1.41 1.36 1.34 1.34 1.37 1.36 1.35 1.39 1.40 1.42 1.41 1.38 1.40 1.47 1.54 1.59 1.63 1.61 1.55 1.49 1.44 1.39 1.33 1.26 1.22 1.16 1.12 1.14 1.14 1.11 1.10 1.13 1.15 1.16 1.18 1.24 1.28 1.27 1.27 1.25 1.20 1.18 1.20 1.22 1.24 1.26 1.29 1.30 1.29 1.29 1.31 1.31 1.25 1.19 1.13 1.22 1.27 1.21 1.27 1.36 1.42 1.41 1.40 1.43 1.43 1.50 1.48 1.45 1.39 1.43
1.24 1.34 1.37 1.44 1.49 1.50 1.50 1.48 1.48 1.56 1.62 1.65 1.63 1.59 1.54 1.47 1.42 1.40 1.38 1.34 1.30 1.29 1.32 1.34 1.39 1.41 1.42 1.43 1.47 1.53 1.59 1.67 1.68 1.67 1.63 1.60 1.58 1.54 1.49 1.42 1.35 1.28 1.25 1.25 1.23 1.17 1.16 1.19 1.18 1.16 1.20 1.24 1.24 1.23 1.24 1.24 1.22 1.18 1.16 1.16 1.20 1.25 1.29 1.29 1.29 1.32 1.34 1.33 1.30 1.27 1.31 1.37 1.36 1.40 1.46 1.49 1.47 1.53 1.56 1.56 1.60 1.59 1.58 1.60 1.56
1.14 1.25 1.31 1.37 1.41 1.47 1.52 1.51 1.50 1.51 1.58 1.61 1.60 1.57 1.56 1.52 1.45 1.42 1.39 1.38 1.39 1.39 1.39 1.40 1.39 1.41 1.45 1.47 1.45 1.45 1.55 1.63 1.65 1.67 1.68 1.68 1.68 1.66 1.63 1.58 1.53 1.50 1.47 1.42 1.36 1.31 1.27 1.25 1.25 1.25 1.25 1.24 1.26 1.25 1.27 1.29 1.26 1.22 1.18 1.16 1.18 1.22 1.25 1.30 1.32 1.34 1.34 1.32 1.34 1.36 1.39 1.43 1.48 1.51 1.54 1.54 1.54 1.58 1.63 1.68 1.74 1.69 1.58 1.49 1.45
1.06 1.15 1.24 1.32 1.40 1.47 1.53 1.53 1.52 1.50 1.54 1.57 1.57 1.55 1.55 1.55 1.53 1.51 1.42 1.39 1.40 1.39 1.38 1.40 1.44 1.47 1.48 1.48 1.44 1.41 1.47 1.57 1.60 1.62 1.64 1.67 1.70 1.69 1.67 1.65 1.61 1.56 1.56 1.59 1.58 1.53 1.47 1.39 1.33 1.29 1.29 1.28 1.31 1.32 1.33 1.36 1.32 1.26 1.22 1.19 1.19 1.19 1.19 1.29 1.35 1.39 1.40 1.38 1.37 1.39 1.44 1.47 1.50 1.54 1.58 1.60 1.57 1.55 1.57 1.56 1.56 1.57 1.44 1.39 1.43
1.01 1.09 1.20 1.29 1.36 1.43 1.51 1.55 1.55 1.54 1.53 1.53 1.55 1.58 1.61 1.61 1.57 1.56 1.44 1.39 1.37 1.42 1.47 1.47 1.49 1.50 1.49 1.48 1.48 1.44 1.45 1.54 1.57 1.60 1.63 1.67 1.69 1.68 1.69 1.68 1.64 1.61 1.61 1.66 1.69 1.68 1.65 1.62 1.56 1.47 1.39 1.35 1.36 1.36 1.35 1.37 1.36 1.32 1.27 1.22 1.21 1.18 1.19 1.27 1.32 1.38 1.42 1.42 1.41 1.40 1.42 1.44 1.47 1.52 1.57 1.60 1.61 1.57 1.50 1.45 1.60 1.58 1.41 1.40 1.32
0.97 1.03 1.14 1.27 1.34 1.41 1.51 1.56 1.57 1.54 1.52 1.55 1.60 1.59 1.56 1.55 1.59 1.61 1.55 1.49 1.46 1.51 1.54 1.50 1.50 1.53 1.54 1.53 1.55 1.52 1.51 1.56 1.59 1.60 1.65 1.70 1.74 1.77 1.76 1.73 1.68 1.65 1.65 1.65 1.69 1.72 1.74 1.76 1.73 1.69 1.64 1.60 1.54 1.46 1.40 1.38 1.35 1.34 1.31 1.27 1.20 1.16 1.15 1.20 1.22 1.26 1.30 1.32 1.36 1.39 1.37 1.38 1.42 1.44 1.48 1.55 1.61 1.62 1.58 1.59 1.67 1.57 1.40 1.37 1.36
0.94 1.05 1.15 1.24 1.31 1.36 1.46 1.53 1.57 1.57 1.55 1.58 1.61 1.59 1.60 1.60 1.58 1.59 1.58 1.55 1.49 1.50 1.54 1.55 1.54 1.58 1.62 1.61 1.60 1.62 1.63 1.66 1.68 1.67 1.68 1.71 1.76 1.80 1.81 1.72 1.62 1.62 1.69 1.69 1.68 1.71 1.75 1.80 1.82 1.81 1.80 1.80 1.78 1.70 1.60 1.51 1.43 1.41 1.39 1.29 1.20 1.16 1.27 1.28 1.23 1.24 1.24 1.26 1.28 1.32 1.31 1.33 1.37 1.41 1.44 1.49 1.56 1.63 1.63 1.63 1.70 1.63 1.45 1.38 1.36
0.95 1.05 1.14 1.22 1.28 1.32 1.41 1.49 1.55 1.62 1.66 1.64 1.66 1.64 1.60 1.55 1.57 1.58 1.57 1.58 1.54 1.50 1.50 1.54 1.56 1.62 1.69 1.71 1.69 1.70 1.72 1.72 1.75 1.74 1.74 1.75 1.77 1.80 1.80 1.76 1.72 1.72 1.74 1.74 1.73 1.70 1.72 1.76 1.83 1.87 1.85 1.84 1.85 1.82 1.77 1.73 1.66 1.58 1.48 1.34 1.27 1.25 1.34 1.31 1.29 1.32 1.31 1.30 1.32 1.33 1.35 1.36 1.36 1.40 1.41 1.43 1.48 1.57 1.60 1.63 1.73 1.74 1.56 1.37 1.30
0.97 1.04 1.12 1.20 1.28 1.33 1.38 1.48 1.58 1.63 1.69 1.70 1.66 1.62 1.63 1.62 1.58 1.57 1.59 1.58 1.53 1.50 1.52 1.53 1.54 1.56 1.63 1.70 1.75 1.77 1.82 1.82 1.82 1.79 1.78 1.79 1.81 1.84 1.82 1.81 1.84 1.83 1.80 1.77 1.75 1.73 1.74 1.79 1.81 1.83 1.84 1.84 1.85 1.85 1.83 1.81 1.79 1.77 1.68 1.61 1.57 1.55 1.49 1.46 1.41 1.38 1.37 1.36 1.34 1.32 1.31 1.32 1.35 1.37 1.37 1.39 1.45 1.51 1.55 1.58 1.71 1.76 1.63 1.51 1.40
1.00 1.05 1.12 1.20 1.29 1.37 1.44 1.49 1.54 1.61 1.64 1.67 1.65 1.60 1.63 1.61 1.60 1.60 1.56 1.56 1.54 1.51 1.53 1.54 1.54 1.55 1.60 1.68 1.75 1.79 1.85 1.89 1.88 1.84 1.84 1.85 1.85 1.86 1.86 1.88 1.93 1.93 1.84 1.76 1.76 1.77 1.84 1.85 1.86 1.86 1.84 1.83 1.85 1.86 1.88 1.87 1.85 1.81 1.78 1.80 1.82 1.82 1.78 1.68 1.59 1.46 1.38 1.32 1.29 1.26 1.26 1.29 1.30 1.32 1.34 1.36 1.42 1.48 1.52 1.58 1.72 1.77 1.66 1.58 1.54
1.04 1.07 1.11 1.20 1.30 1.41 1.50 1.54 1.56 1.58 1.62 1.65 1.64 1.60 1.60 1.61 1.62 1.60 1.59 1.56 1.54 1.53 1.55 1.58 1.58 1.55 1.55 1.60 1.69 1.77 1.85 1.88 1.91 1.89 1.86 1.86 1.86 1.84 1.84 1.86 1.91 1.89 1.88 1.83 1.85 1.87 1.87 1.89 1.90 1.90 1.89 1.88 1.88 1.88 1.88 1.88 1.83 1.79 1.80 1.83 1.87 1.93 1.94 1.89 1.80 1.64 1.51 1.41 1.33 1.29 1.27 1.30 1.30 1.30 1.31 1.37 1.41 1.46 1.51 1.59 1.70 1.74 1.65 1.57 1.51
1.08 1.10 1.16 1.22 1.30 1.41 1.52 1.56 1.57 1.58 1.63 1.65 1.61 1.60 1.60 1.61 1.57 1.60 1.59 1.57 1.56 1.54 1.57 1.61 1.60 1.60 1.62 1.60 1.64 1.69 1.74 1.82 1.88 1.91 1.91 1.88 1.85 1.82 1.81 1.83 1.85 1.87 1.85 1.87 1.90 1.90 1.93 1.96 1.96 1.95 1.94 1.92 1.90 1.87 1.85 1.81 1.78 1.79 1.83 1.88 1.94 1.96 1.93 1.90 1.86 1.80 1.66 1.51 1.41 1.36 1.35 1.36 1.34 1.32 1.38 1.42 1.46 1.51 1.53 1.57 1.68 1.70 1.65 1.54 1.49
1.14 1.17 1.25 1.32 1.38 1.44 1.46 1.54 1.60 1.62 1.65 1.68 1.68 1.67 1.62 1.59 1.55 1.56 1.58 1.58 1.59 1.58 1.60 1.65 1.66 1.67 1.65 1.66 1.65 1.70 1.77 1.81 1.84 1.90 1.89 1.86 1.81 1.78 1.79 1.81 1.83 1.87 1.90 1.90 1.92 1.94 1.96 1.98 1.99 1.98 1.95 1.91 1.86 1.81 1.77 1.76 1.81 1.84 1.85 1.88 1.91 1.90 1.88 1.86 1.85 1.80 1.71 1.69 1.67 1.59 1.52 1.50 1.49 1.49 1.49 1.47 1.45 1.44 1.46 1.48 1.53 1.55 1.50 1.38 1.33
1.19 1.25 1.33 1.43 1.49 1.49 1.47 1.52 1.60 1.63 1.63 1.66 1.74 1.76 1.73 1.67 1.61 1.58 1.58 1.57 1.60 1.63 1.64 1.66 1.68 1.68 1.67 1.69 1.71 1.73 1.75 1.78 1.83 1.88 1.84 1.83 1.79 1.79 1.77 1.77 1.80 1.81 1.81 1.84 1.88 1.92 1.97 2.00 1.98 1.97 1.91 1.86 1.81 1.79 1.77 1.79 1.79 1.77 1.80 1.86 1.90 1.91 1.90 1.88 1.84 1.78 1.75 1.73 1.71 1.71 1.70 1.66 1.62 1.55 1.49 1.48 1.46 1.47 1.50 1.47 1.47 1.45 1.38 1.35 1.31
1.30 1.33 1.42 1.47 1.49 1.46 1.45 1.50 1.55 1.58 1.64 1.66 1.68 1.70 1.70 1.71 1.68 1.66 1.63 1.63 1.63 1.64 1.65 1.66 1.66 1.68 1.67 1.69 1.71 1.70 1.69 1.78 1.75 1.75 1.76 1.79 1.80 1.81 1.81 1.81 1.81 1.81 1.80 1.84 1.89 1.95 2.00 2.04 2.03 1.98 1.92 1.86 1.80 1.77 1.75 1.75 1.73 1.74 1.76 1.80 1.83 1.88 1.92 1.93 1.92 1.88 1.81 1.77 1.75 1.76 1.73 1.69 1.61 1.55 1.52 1.48 1.47 1.47 1.49 1.46 1.44 1.39 1.36 1.32 1.25
1.37 1.37 1.40 1.39 1.38 1.40 1.42 1.50 1.54 1.56 1.64 1.61 1.58 1.64 1.67 1.71 1.76 1.75 1.76 1.79 1.78 1.71 1.68 1.69 1.74 1.78 1.76 1.75 1.74 1.74 1.73 1.68 1.69 1.76 1.79 1.79 1.83 1.80 1.82 1.81 1.84 1.85 1.88 1.90 1.89 1.92 1.95 1.91 1.84 1.81 1.77 1.72 1.71 1.72 1.73 1.75 1.76 1.78 1.78 1.76 1.74 1.75 1.79 1.78 1.73 1.73 1.75 1.74 1.70 1.67 1.66 1.65 1.63 1.64 1.59 1.51 1.49 1.50 1.53 1.47 1.48 1.42 1.33 1.26 1.17
1.35 1.31 1.32 1.35 1.37 1.31 1.38 1.45 1.52 1.56 1.62 1.52 1.57 1.59 1.69 1.78 1.80 1.75 1.72 1.76 1.81 1.83 1.83 1.78 1.82 1.86 1.76 1.75 1.77 1.71 1.68 1.68 1.72 1.73 1.75 1.77 1.76 1.77 1.79 1.81 1.83 1.85 1.89 1.90 1.89 1.81 1.79 1.77 1.78 1.78 1.75 1.70 1.64 1.60 1.58 1.56 1.54 1.54 1.55 1.58 1.64 1.69 1.73 1.76 1.77 1.79 1.86 1.86 1.82 1.79 1.75 1.70 1.64 1.62 1.59 1.56 1.57 1.57 1.56 1.48 1.44 1.40 1.25 1.20 1.16
1.39 1.38 1.36 1.39 1.45 1.39 1.37 1.39 1.43 1.55 1.66 1.61 1.60 1.55 1.59 1.68 1.73 1.74 1.76 1.79 1.80 1.78 1.78 1.81 1.85 1.87 1.84 1.76 1.74 1.76 1.76 1.73 1.71 1.69 1.67 1.66 1.66 1.64 1.62 1.60 1.57 1.57 1.58 1.57 1.57 1.55 1.54 1.54 1.54 1.57 1.54 1.51 1.43 1.39 1.41 1.40 1.41 1.44 1.49 1.57 1.66 1.70 1.73 1.74 1.77 1.82 1.84 1.85 1.89 1.88 1.86 1.78 1.74 1.67 1.60 1.56 1.50 1.49 1.50 1.47 1.42 1.31 1.23 1.17 1.12
1.33 1.37 1.40 1.46 1.48 1.45 1.51 1.52 1.48 1.51 1.67 1.62 1.64 1.58 1.53 1.50 1.54 1.62 1.65 1.69 1.71 1.70 1.71 1.71 1.72 1.73 1.74 1.72 1.67 1.63 1.62 1.60 1.57 1.53 1.51 1.49 1.47 1.46 1.42 1.38 1.34 1.31 1.26 1.22 1.16 1.16 1.19 1.17 1.16 1.18 1.22 1.23 1.22 1.24 1.26 1.27 1.30 1.33 1.35 1.36 1.39 1.46 1.50 1.54 1.63 1.65 1.63 1.63 1.62 1.67 1.70 1.67 1.68 1.71 1.71 1.68 1.59 1.52 1.50 1.47 1.41 1.29 1.25 1.19 1.14
1.39 1.40 1.43 1.50 1.52 1.53 1.60 1.61 1.59 1.58 1.63 1.61 1.58 1.57 1.50 1.42 1.37 1.39 1.49 1.56 1.59 1.61 1.61 1.60 1.58 1.53 1.52 1.50 1.50 1.47 1.45 1.44 1.42 1.40 1.36 1.33 1.31 1.27 1.24 1.19 1.14 1.09 1.04 0.96 0.89 0.88 0.92 0.96 1.01 1.07 1.12 1.13 1.16 1.19 1.22 1.24 1.25 1.27 1.30 1.30 1.27 1.27 1.30 1.39 1.54 1.65 1.71 1.73 1.78 1.77 1.79 1.78 1.71 1.72 1.72 1.76 1.69 1.55 1.48 1.46 1.42 1.38 1.32 1.20 1.16
1.44 1.48 1.50 1.51 1.52 1.54 1.61 1.64 1.62 1.58 1.65 1.68 1.68 1.64 1.57 1.49 1.41 1.37 1.32 1.31 1.35 1.40 1.44 1.44 1.43 1.43 1.43 1.42 1.40 1.39 1.36 1.32 1.28 1.24 1.18 1.12 1.08 1.05 1.04 1.03 1.03 1.03 1.01 0.96 0.95 0.92 0.95 0.94 0.95 0.95 0.97 1.00 1.05 1.13 1.17 1.19 1.24 1.26 1.29 1.31 1.34 1.41 1.48 1.57 1.61 1.64 1.71 1.75 1.76 1.79 1.83 1.86 1.80 1.75 1.72 1.62 1.59 1.58 1.50 1.48 1.45 1.37 1.30 1.19 1.15
1.42 1.48 1.51 1.54 1.53 1.52 1.58 1.60 1.60 1.60 1.57 1.57 1.60 1.57 1.47 1.44 1.40 1.31 1.24 1.18 1.16 1.16 1.16 1.22 1.25 1.23 1.22 1.21 1.20 1.19 1.15 1.10 1.07 1.07 1.06 1.05 1.05 1.07 1.09 1.05 1.00 0.99 1.00 1.00 0.99 0.99 0.98 0.99 0.99 1.02 1.03 1.02 1.04 1.05 1.04 1.06 1.12 1.18 1.24 1.29 1.35 1.42 1.48 1.53 1.55 1.55 1.63 1.74 1.81 1.88 1.91 1.89 1.84 1.73 1.72 1.62 1.53 1.53 1.51 1.48 1.42 1.34 1.24 1.20 1.20
1.30 1.32 1.33 1.38 1.41 1.42 1.48 1.53 1.54 1.53 1.49 1.52 1.58 1.57 1.41 1.29 1.22 1.15 1.10 1.09 1.08 1.08 1.09 1.09 1.09 1.08 1.08 1.08 1.09 1.08 1.08 1.08 1.06 1.05 1.05 1.06 1.06 1.06 0.98 0.95 0.96 0.97 0.98 1.01 1.02 1.04 1.05 1.06 1.06 1.06 1.07 1.07 1.09 1.09 1.10 1.10 1.11 1.12 1.15 1.21 1.27 1.35 1.42 1.48 1.58 1.66 1.72 1.80 1.86 1.91 1.90 1.86 1.82 1.76 1.75 1.70 1.64 1.54 1.51 1.47 1.40 1.31 1.26 1.23 1.20
1.24 1.24 1.27 1.27 1.29 1.32 1.33 1.37 1.40 1.39 1.37 1.36 1.34 1.30 1.23 1.20 1.18 1.16 1.11 1.11 1.07 1.08 1.10 1.17 1.14 1.05 1.06 1.08 1.11 1.10 1.09 1.09 1.08 1.07 1.08 1.09 1.10 1.09 1.04 1.02 1.00 1.00 1.00 1.01 1.05 1.06 1.06 1.08 1.09 1.08 1.09 1.09 1.12 1.15 1.16 1.16 1.18 1.18 1.20 1.22 1.24 1.26 1.36 1.50 1.60 1.68 1.75 1.81 1.90 1.94 1.92 1.89 1.83 1.76 1.69 1.62 1.64 1.63 1.54 1.43 1.33 1.26 1.24 1.23 1.22
1.25 1.23 1.22 1.23 1.26 1.28 1.23 1.23 1.25 1.27 1.28 1.30 1.29 1.27 1.23 1.20 1.17 1.15 1.16 1.17 1.09 1.07 1.07 1.08 1.04 0.93 0.90 0.96 1.12 1.15 1.14 1.12 1.12 1.09 1.11 1.10 1.10 1.07 1.06 1.05 1.05 1.03 1.04 1.07 1.09 1.08 1.07 1.10 1.12 1.12 1.13 1.13 1.12 1.11 1.09 1.08 1.11 1.13 1.16 1.20 1.25 1.30 1.36 1.39 1.52 1.72 1.81 1.85 1.91 1.95 1.85 1.84 1.79 1.73 1.71 1.68 1.62 1.52 1.39 1.30 1.25 1.24 1.26 1.27 1.26
1.25 1.22 1.22 1.23 1.27 1.27 1.27 1.25 1.25 1.25 1.25 1.26 1.27 1.25 1.22 1.21 1.22 1.21 1.18 1.15 1.15 1.12 1.08 1.01 0.92 0.91 0.94 1.03 1.08 1.18 1.19 1.08 1.01 1.00 1.01 1.03 1.06 1.09 1.08 1.07 1.07 1.08 1.10 1.12 1.13 1.12 1.11 1.11 1.14 1.16 1.16 1.15 1.12 1.10 1.10 1.09 1.10 1.10 1.13 1.17 1.22 1.29 1.34 1.43 1.58 1.62 1.72 1.80 1.85 1.88 1.85 1.76 1.72 1.72 1.68 1.61 1.49 1.35 1.33 1.31 1.28 1.29 1.28 1.25 1.21
1.24 1.25 1.26 1.26 1.26 1.27 1.25 1.22 1.22 1.24 1.25 1.25 1.21 1.20 1.19 1.17 1.14 1.15 1.17 1.17 1.15 1.09 1.06 0.98 0.95 0.98 1.03 1.07 1.09 1.10 1.08 1.03 1.03 1.02 1.00 1.00 1.02 1.05 1.09 1.09 1.11 1.10 1.11 1.15 1.16 1.16 1.16 1.15 1.16 1.14 1.12 1.12 1.12 1.12 1.13 1.12 1.13 1.11 1.09 1.09 1.14 1.22 1.32 1.43 1.54 1.62 1.68 1.78 1.81 1.80 1.72 1.68 1.70 1.65 1.55 1.39 1.34 1.37 1.31 1.31 1.35 1.35 1.31 1.23 1.17
1.28 1.28 1.27 1.26 1.26 1.25 1.25 1.24 1.23 1.22 1.24 1.26 1.28 1.29 1.27 1.25 1.24 1.22 1.19 1.16 1.11 1.09 1.09 1.06 1.05 1.08 1.11 1.09 1.10 1.13 1.14 1.09 1.05 1.05 1.02 1.03 1.06 1.07 1.09 1.11 1.13 1.13 1.15 1.16 1.17 1.17 1.17 1.18 1.19 1.20 1.18 1.15 1.15 1.14 1.12 1.13 1.14 1.16 1.17 1.15 1.14 1.16 1.28 1.47 1.55 1.58 1.66 1.72 1.71 1.67 1.66 1.61 1.51 1.41 1.36 1.35 1.35 1.34 1.36 1.37 1.33 1.28 1.24 1.20 1.16
1.34 1.32 1.29 1.28 1.28 1.26 1.24 1.25 1.26 1.29 1.30 1.28 1.26 1.26 1.26 1.25 1.25 1.24 1.22 1.20 1.18 1.17 1.15 1.15 1.16 1.16 1.18 1.18 1.14 1.17 1.20 1.14 1.10 1.09 1.11 1.11 1.11 1.11 1.12 1.14 1.17 1.18 1.17 1.17 1.17 1.17 1.16 1.17 1.21 1.23 1.22 1.20 1.16 1.15 1.14 1.13 1.15 1.15 1.15 1.16 1.15 1.17 1.22 1.32 1.43 1.47 1.49 1.48 1.49 1.46 1.40 1.36 1.32 1.32 1.31 1.30 1.33 1.35 1.34 1.32 1.29 1.28 1.22 1.17 1.12
1.38 1.35 1.34 1.35 1.35 1.32 1.31 1.32 1.35 1.32 1.31 1.30 1.29 1.29 1.28 1.23 1.23 1.26 1.26 1.24 1.24 1.23 1.22 1.22 1.24 1.26 1.25 1.22 1.21 1.20 1.21 1.19 1.15 1.16 1.15 1.18 1.16 1.15 1.15 1.15 1.16 1.18 1.21 1.23 1.24 1.23 1.20 1.17 1.17 1.19 1.20 1.21 1.22 1.20 1.15 1.15 1.16 1.16 1.17 1.16 1.17 1.20 1.21 1.21 1.22 1.28 1.36 1.39 1.39 1.36 1.31 1.31 1.32 1.33 1.34 1.33 1.37 1.35 1.31 1.28 1.24 1.20 1.15 1.11 1.06
1.36 1.36 1.38 1.38 1.38 1.38 1.38 1.38 1.36 1.37 1.35 1.34 1.35 1.36 1.35 1.35 1.34 1.31 1.28 1.26 1.25 1.24 1.23 1.27 1.28 1.29 1.27 1.27 1.27 1.23 1.21 1.20 1.19 1.19 1.21 1.20 1.19 1.17 1.17 1.19 1.19 1.20 1.25 1.24 1.23 1.24 1.21 1.20 1.18 1.19 1.21 1.22 1.25 1.26 1.23 1.21 1.19 1.15 1.13 1.14 1.15 1.18 1.19 1.21 1.24 1.26 1.28 1.30 1.34 1.36 1.36 1.36 1.36 1.36 1.33 1.31 1.30 1.27 1.23 1.20 1.16 1.12 1.08 1.04 1.00
1.33 1.33 1.36 1.36 1.39 1.41 1.41 1.43 1.41 1.40 1.39 1.38 1.38 1.38 1.41 1.42 1.39 1.37 1.36 1.31 1.31 1.31 1.29 1.30 1.29 1.24 1.24 1.24 1.26 1.21 1.18 1.16 1.22 1.24 1.26 1.23 1.23 1.22 1.22 1.21 1.24 1.25 1.26 1.28 1.27 1.28 1.29 1.25 1.24 1.23 1.19 1.20 1.22 1.22 1.24 1.26 1.26 1.24 1.22 1.17 1.15 1.15 1.18 1.23 1.26 1.28 1.29 1.27 1.27 1.29 1.32 1.33 1.30 1.28 1.27 1.27 1.25 1.20 1.16 1.12 1.09 1.06 1.02 0.98 0.92
1.32 1.30 1.29 1.29 1.32 1.35 1.35 1.38 1.40 1.41 1.41 1.42 1.41 1.41 1.42 1.43 1.43 1.44 1.44 1.41 1.39 1.36 1.32 1.31 1.27 1.26 1.22 1.20 1.20 1.19 1.20 1.20 1.22 1.24 1.28 1.29 1.26 1.25 1.25 1.28 1.31 1.30 1.30 1.32 1.33 1.32 1.35 1.34 1.29 1.28 1.24 1.22 1.19 1.18 1.20 1.24 1.27 1.26 1.25 1.24 1.20 1.20 1.25 1.28 1.29 1.28 1.28 1.27 1.25 1.25 1.26 1.26 1.24 1.21 1.20 1.19 1.17 1.14 1.10 1.08 1.05 1.00 0.96 0.90 0.84
1.33 1.31 1.30 1.31 1.30 1.33 1.34 1.36 1.38 1.41 1.42 1.43 1.45 1.45 1.45 1.45 1.45 1.41 1.39 1.39 1.36 1.34 1.33 1.29 1.25 1.22 1.21 1.20 1.18 1.19 1.20 1.25 1.24 1.29 1.31 1.33 1.33 1.32 1.34 1.35 1.33 1.32 1.32 1.32 1.31 1.27 1.29 1.30 1.29 1.27 1.25 1.21 1.18 1.16 1.16 1.16 1.17 1.19 1.19 1.17 1.17 1.18 1.20 1.21 1.21 1.21 1.21 1.21 1.22 1.21 1.20 1.18 1.17 1.17 1.16 1.13 1.10 1.07 1.03 1.00 0.96 0.91 0.86 0.80 0.76
1.31 1.30 1.31 1.30 1.30 1.29 1.29 1.32 1.34 1.36 1.38 1.40 1.41 1.40 1.40 1.39 1.36 1.33 1.32 1.31 1.30 1.30 1.30 1.31 1.30 1.27 1.25 1.24 1.25 1.23 1.24 1.25 1.31 1.33 1.34 1.35 1.35 1.36 1.36 1.37 1.34 1.32 1.33 1.31 1.30 1.28 1.25 1.23 1.22 1.20 1.17 1.16 1.14 1.14 1.13 1.14 1.14 1.15 1.15 1.15 1.17 1.17 1.18 1.19 1.19 1.19 1.20 1.20 1.20 1.19 1.18 1.15 1.13 1.12 1.10 1.05 0.99 0.95 0.90 0.87 0.84 0.81 0.77 0.73 0.69
1.22 1.24 1.24 1.24 1.24 1.25 1.25 1.25 1.26 1.27 1.29 1.31 1.33 1.33 1.32 1.31 1.28 1.25 1.25 1.25 1.25 1.24 1.24 1.23 1.23 1.25 1.25 1.24 1.24 1.24 1.25 1.27 1.29 1.32 1.33 1.34 1.35 1.35 1.35 1.35 1.37 1.37 1.36 1.34 1.31 1.29 1.25 1.22 1.19 1.19 1.18 1.17 1.17 1.15 1.14 1.14 1.13 1.14 1.16 1.18 1.18 1.17 1.16 1.15 1.13 1.13 1.13 1.13 1.12 1.11 1.10 1.08 1.04 0.99 0.96 0.93 0.89 0.87 0.84 0.80 0.77 0.74 0.72 0.69 0.65
1.16 1.17 1.17 1.18 1.18 1.19 1.21 1.22 1.22 1.23 1.25 1.28 1.28 1.27 1.27 1.25 1.23 1.22 1.22 1.21 1.19 1.18 1.18 1.18 1.17 1.18 1.18 1.17 1.18 1.18 1.19 1.20 1.22 1.26 1.31 1.34 1.36 1.37 1.39 1.40 1.39 1.42 1.42 1.40 1.42 1.37 1.33 1.28 1.27 1.22 1.21 1.20 1.19 1.17 1.16 1.15 1.15 1.14 1.14 1.13 1.12 1.10 1.08 1.06 1.06 1.06 1.06 1.05 1.04 1.02 1.00 0.96 0.93 0.91 0.89 0.87 0.85 0.82 0.79 0.76 0.72 0.68 0.66 0.65 0.64
1.13 1.14 1.15 1.16 1.16 1.17 1.18 1.19 1.19 1.20 1.20 1.19 1.17 1.17 1.17 1.16 1.16 1.16 1.15 1.14 1.13 1.13 1.14 1.15 1.16 1.17 1.17 1.18 1.18 1.18 1.18 1.21 1.23 1.25 1.27 1.29 1.30 1.33 1.35 1.37 1.38 1.42 1.42 1.42 1.47 1.47 1.45 1.38 1.33 1.28 1.27 1.22 1.20 1.17 1.16 1.14 1.14 1.12 1.10 1.10 1.08 1.08 1.08 1.07 1.06 1.04 1.02 1.01 0.99 0.96 0.93 0.90 0.88 0.86 0.85 0.84 0.83 0.79 0.76 0.74 0.73 0.70 0.67 0.65 0.64
Wind_Speed
25 25 26 26 26 26 26 26 25 25 24 24 23 23 23 22 21 21 20 20 19 19 19 18 18 17 18 17 17 17 17 16 16 16 16 16 16 16 16 16 16 16 16 16 15 15 14 14 13 12 12 11 11 10 9 8 8 8 8 8 8 8 8 8 9 9 9 9 9 9 10 10 11 11 12 12 13 13 14 15 15 16 16 17 18
25 25 25 25 26 26 26 26 25 25 24 24 24 23 23 22 22 21 20 20 20 20 20 20 19 19 18 18 18 18 18 17 17 17 17 17 17 17 17 17 17 17 17 17 17 16 16 16 15 14 13 13 13 12 11 11 10 10 10 10 10 10 10 10 10 10 11 11 11 11 11 11 11 12 12 13 14 14 15 16 16 17 17 18 18
25 25 24 25 25 25 25 25 25 25 25 24 24 24 23 23 22 22 21 21 21 21 21 21 20 20 20 19 19 19 19 19 18 18 18 19 19 19 18 18 18 18 18 18 18 18 17 17 17 16 15 15 14 14 14 13 12 12 12 12 12 12 12 12 11 12 12 12 12 12 13 13 13 13 14 14 15 16 16 17 17 18 18 19 19
24 24 24 25 25 25 25 25 25 25 25 24 25 24 24 23 23 23 23 22 22 21 21 21 21 21 21 21 20 20 20 20 20 19 19 19 19 20 20 19 19 19 19 19 19 19 19 19 18 18 17 17 16 16 15 15 14 14 14 14 14 13 13 13 13 13 13 14 14 14 14 14 15 15 15 15 16 17 17 18 18 19 19 19 20
24 24 24 25 25 25 25 25 25 25 25 25 25 25 24 24 23 23 23 23 22 22 22 22 22 22 22 22 21 21 21 21 21 20 20 20 20 20 20 20 20 20 20 20 20 20 20 20 20 19 19 18 18 17 17 17 16 16 16 15 15 15 15 15 15 15 15 15 15 15 15 15 16 16 16 16 17 17 18 18 19 19 20 20 20
24 24 24 25 25 25 25 25 25 25 25 25 25 25 25 24 23 23 23 23 22 22 22 22 22 22 22 22 22 22 22 22 22 22 21 21 21 21 21 21 21 21 21 21 21 21 21 21 21 21 21 20 20 19 19 19 18 18 17 17 17 17 17 17 16 16 17 17 17 17 17 17 17 17 17 17 17 18 18 19 19 20 21 21 21
24 24 24 24 24 25 25 26 26 26 26 25 25 25 25 24 24 23 23 23 23 22 22 22 22 22 23 23 23 23 23 22 22 22 22 21 21 21 21 21 21 21 22 22 22 22 22 22 22 22 22 22 21 21 20 20 20 20 19 19 19 18 18 18 18 18 18 18 18 18 18 18 18 18 18 19 19 19 19 19 20 21 21 21 22
24 24 24 24 24 25 25 26 26 26 26 25 25 24 24 24 23 23 22 22 23 22 22 22 22 22 22 23 23 23 23 23 23 23 23 22 21 21 21 21 21 22 22 22 23 23 23 24 24 24 23 23 23 23 22 22 22 22 21 21 20 20 20 20 20 20 20 20 19 19 19 20 20 20 20 20 20 21 21 21 21 21 22 22 22
24 24 24 24 24 25 25 25 26 26 26 26 25 25 24 24 24 23 22 22 22 22 21 21 21 22 22 22 22 23 23 23 24 23 23 23 22 22 22 22 22 22 22 22 22 23 24 24 24 24 24 25 25 25 24 24 23 23 23 23 23 22 22 22 22 21 21 21 21 21 20 21 21 21 21 21 21 22 22 22 22 22 23 23 23
23 24 23 24 24 25 25 25 25 26 26 26 26 26 25 24 24 23 23 22 21 21 21 21 21 21 21 21 21 22 22 23 24 24 24 24 24 23 22 22 22 22 22 22 22 23 23 24 24 25 25 26 26 26 26 26 25 25 25 25 25 24 24 24 23 23 23 23 23 22 22 22 22 22 22 23 23 23 23 23 24 24 24 24 24
23 23 23 23 24 25 25 25 25 26 26 26 26 26 25 25 24 23 23 22 22 21 21 20 20 20 20 19 20 21 21 22 22 23 24 24 24 23 23 23 22 22 22 22 22 23 23 24 24 25 25 26 26 27 27 27 27 27 27 27 27 27 26 26 25 25 25 25 24 24 23 23 23 23 23 23 24 24 24 24 24 24 24 25 24
22 23 23 22 23 24 25 26 26 26 26 26 26 26 26 25 24 24 24 23 22 22 21 21 21 20 19 19 19 20 20 20 21 21 22 23 23 23 23 23 23 23 23 23 23 23 23 24 24 25 25 26 27 27 28 28 29 29 29 29 29 29 28 28 28 27 27 27 26 26 25 25 24 24 24 24 24 24 25 25 25 25 25 26 25
22 23 23 22 22 23 25 26 27 27 27 26 26 26 26 26 25 24 24 24 23 23 22 22 21 21 20 19 19 19 19 20 20 20 21 22 22 23 22 23 23 23 24 24 24 24 24 24 25 25 25 26 27 27 28 29 30 30 30 30 30 30 30 30 30 30 29 29 29 28 28 27 26 26 25 25 25 25 25 26 26 26 26 27 27
23 23 23 23 22 22 24 25 27 27 27 27 27 26 27 26 26 25 25 24 24 24 23 23 22 22 21 21 20 20 20 20 20 21 21 22 22 23 22 23 23 23 24 24 25 25 25 25 25 26 26 26 27 28 28 29 30 30 31 31 31 31 31 32 32 31 31 31 31 31 30 29 28 28 27 27 27 27 26 27 27 27 27 28 28
23 23 24 23 22 22 22 24 26 27 28 27 27 27 27 27 27 26 25 25 25 24 24 24 23 23 23 22 21 21 21 21 21 22 22 23 23 23 23 23 23 24 24 25 25 26 26 26 27 27 27 27 28 28 29 29 30 31 32 32 33 33 33 33 33 33 33 33 33 32 32 31 30 29 29 29 29 28 28 28 28 28 28 28 28
23 23 24 24 23 22 22 23 24 26 27 27 27 27 28 28 27 26 26 25 24 24 24 24 24 23 23 23 23 23 23 22 22 23 23 24 24 24 25 25 25 25 25 26 26 27 27 27 28 28 29 29 29 29 30 30 31 31 32 33 34 34 34 35 35 35 35 35 35 34 33 32 31 31 30 30 30 29 29 29 29 29 29 29 28
23 23 23 23 22 21 21 21 22 24 26 27 27 27 27 27 27 26 26 25 24 24 24 24 24 24 24 24 24 25 24 24 24 24 25 25 25 26 26 27 27 27 27 27 28 28 28 29 29 30 30 31 31 31 31 31 32 32 33 34 35 35 36 36 36 37 37 37 37 36 35 34 33 32 32 32 32 31 30 31 31 31 30 29 29
23 23 22 22 22 22 22 21 21 23 25 26 26 26 26 26 26 26 26 25 25 25 24 24 24 25 25 25 25 26 26 25 25 26 26 26 27 27 28 28 28 29 29 30 30 30 30 31 31 31 31 32 32 32 33 33 34 34 34 35 36 37 37 37 37 37 38 38 38 38 37 36 36 35 34 34 33 33 32 32 32 32 31 30 30
24 24 23 22 22 21 22 22 21 22 23 24 25 25 25 25 25 25 25 25 25 25 24 24 24 25 25 26 26 26 27 27 27 27 27 27 28 28 29 29 30 31 31 31 32 32 32 32 33 33 34 34 33 34 34 35 35 36 36 36 37 38 38 38 38 38 38 39 39 39 39 38 38 37 36 36 35 35 35 34 34 33 32 31 31
24 24 23 22 22 22 22 23 22 22 22 23 24 24 24 24 25 25 25 25 25 25 24 24 24 24 24 25 26 26 27 27 27 28 28 29 29 30 30 31 32 32 32 32 33 33 33 33 33 34 35 35 35 35 35 36 36 37 37 37 38 39 38 39 39 39 39 39 39 39 39 39 39 38 38 38 38 37 36 36 35 34 33 32 31
25 25 24 23 22 22 23 23 23 23 22 23 23 24 24 24 25 24 24 25 25 25 25 24 24 24 24 25 25 26 27 27 27 28 28 29 30 31 32 32 33 33 33 33 34 34 34 34 34 34 35 36 36 36 36 37 38 38 38 39 40 40 39 40 40 40 40 40 40 40 40 39 40 39 39 39 39 38 38 37 36 35 34 33 33
24 25 25 24 23 23 23 23 24 24 23 23 23 24 24 24 24 24 24 24 24 25 25 25 25 25 25 25 25 26 26 27 27 27 28 30 31 32 33 33 33 34 34 34 34 34 35 35 35 35 35 36 37 37 38 39 39 40 41 41 41 41 41 41 41 41 41 41 40 40 40 40 40 40 40 39 39 39 39 38 37 37 36 36 35
23 25 26 25 24 24 24 24 24 24 24 24 24 24 25 25 25 25 25 25 25 25 26 26 26 26 26 26 26 27 27 27 28 28 28 30 31 32 33 34 34 34 35 35 35 35 35 36 36 36 36 37 38 38 39 40 41 42 43 43 42 42 42 42 42 41 41 41 41 41 41 40 40 40 40 39 39 38 39 39 38 38 37 37 35
22 23 24 25 25 25 24 24 24 25 25 26 26 26 26 26 25 25 26 26 26 26 26 26 27 27 27 27 28 28 28 28 28 29 29 30 31 32 33 34 35 35 35 35 35 36 36 37 38 38 38 38 39 40 41 42 43 44 44 44 44 44 43 43 43 42 42 42 42 42 41 41 40 40 40 39 38 38 38 38 38 38 38 36 35
21 22 23 24 25 25 24 24 24 25 26 26 26 27 27 27 27 26 26 27 27 27 26 27 27 28 28 28 29 29 29 30 30 30 31 31 31 32 32 34 35 35 36 36 36 37 38 38 39 39 39 40 40 41 42 43 44 45 45 46 45 45 45 45 44 44 44 44 43 42 42 42 41 40 39 38 37 36 36 36 36 36 36 35 33
20 21 21 22 23 24 24 24 24 25 26 26 27 27 28 28 28 28 27 27 28 27 27 28 28 29 29 29 30 30 30 31 31 32 32 32 32 33 34 34 35 36 37 37 37 38 38 39 39 40 40 41 41 42 42 43 44 45 46 46 47 47 47 47 47 47 46 46 45 44 44 42 41 40 39 38 37 36 35 35 34 33 33 32 31
20 20 20 21 22 23 24 24 23 24 25 27 27 27 28 28 28 28 28 28 28 28 29 29 29 30 30 31 31 31 31 31 31 31 31 32 32 33 34 34 35 36 37 38 38 39 39 40 40 41 41 42 43 43 44 44 45 46 47 47 48 49 50 50 50 50 49 49 48 47 45 43 42 41 40 39 38 37 36 35 34 32 32 31 30
20 20 20 21 21 23 23 23 23 23 24 25 26 27 27 28 28 28 28 29 29 29 30 30 30 31 31 31 31 31 31 31 31 31 31 31 32 32 32 33 34 35 36 38 39 40 41 41 42 42 43 44 44 45 45 45 46 47 48 48 49 51 52 52 52 52 52 51 50 48 46 44 43 42 41 41 40 39 38 36 34 33 32 31 30
21 21 21 21 21 22 22 22 23 23 23 23 23 24 25 27 27 27 27 27 28 28 29 29 30 30 29 30 30 30 30 30 31 32 32 32 32 32 33 33 34 34 36 37 39 40 41 42 43 44 45 45 46 46 46 47 48 48 49 50 50 51 52 53 53 54 53 52 51 50 48 46 44 43 42 42 41 40 39 37 36 34 33 32 31
21 21 21 21 21 21 22 22 22 23 23 22 22 22 22 23 24 25 25 25 25 26 26 27 27 28 27 28 28 29 30 30 31 32 32 33 33 33 34 34 35 36 37 38 39 40 41 42 43 45 45 46 47 47 48 48 49 50 51 52 52 52 53 54 55 55 54 53 52 51 50 48 46 44 44 43 42 41 40 39 37 36 34 32 31
20 20 20 20 20 20 21 22 22 23 23 23 22 21 20 20 21 21 22 23 23 24 24 25 25 26 26 27 27 28 28 29 30 31 31 32 33 34 35 36 36 37 38 39 39 40 41 43 44 45 47 48 49 49 50 50 51 52 52 53 53 53 54 55 55 55 54 53 52 51 50 49 47 45 44 44 42 41 40 40 39 37 35 33 32
19 20 20 20 19 20 20 21 22 22 22 22 22 22 21 21 21 21 21 22 22 23 24 24 25 25 25 26 26 27 27 28 29 30 31 32 33 34 35 35 36 37 37 38 40 41 42 43 45 46 47 48 49 49 50 50 51 52 52 53 53 54 55 56 56 56 55 55 54 52 50 49 47 45 44 44 42 40 39 39 38 36 35 33 32
20 20 21 20 20 20 20 21 21 21 21 22 23 24 23 23 23 23 22 22 23 23 23 24 24 25 25 26 26 27 28 29 30 31 32 33 33 34 34 35 35 36 37 38 39 41 42 43 44 45 46 47 48 49 49 50 51 52 52 53 54 55 55 55 56 56 57 56 55 54 51 49 47 45 43 43 42 40 39 38 37 35 33 32 31
21 21 22 21 21 21 21 21 21 21 21 21 22 23 23 23 24 24 23 23 23 23 24 24 25 26 26 27 27 28 29 30 30 31 31 32 33 33 33 34 34 36 36 37 38 39 40 41 42 43 44 45 46 48 49 50 51 51 52 53 54 55 55 55 55 56 56 56 55 53 51 49 46 44 42 40 39 38 37 37 35 33 32 30 29
21 21 22 22 22 22 22 21 21 21 21 21 22 22 22 23 23 24 24 24 24 24 24 25 25 26 26 27 27 28 28 29 29 30 30 31 32 32 32 33 34 35 35 36 36 37 38 39 40 41 42 43 45 46 47 48 49 50 51 53 53 54 54 54 55 55 55 54 53 51 48 47 45 42 40 38 37 37 37 35 33 32 31 30 29
21 21 21 21 21 22 22 22 22 22 22 22 23 23 23 23 23 23 23 24 24 25 25 25 25 25 26 26 27 27 28 29 29 30 30 31 31 32 32 32 33 34 34 34 35 36 37 38 39 40 41 42 43 44 45 46 47 48 50 51 51 52 53 53 54 54 53 51 49 46 44 43 42 40 38 36 36 37 37 34 31 30 29 28 28
22 22 22 21 22 22 22 22 22 22 22 23 23 23 23 23 23 23 23 24 24 25 25 25 25 26 26 26 27 28 29 29 30 30 31 31 31 32 31 32 32 32 33 33 34 35 35 35 36 37 38 39 40 41 42 43 45 46 48 49 49 50 51 52 51 48 46 46 46 43 39 37 36 37 36 36 36 37 36 33 30 29 27 26 26
22 22 22 23 23 23 22 22 22 22 23 23 23 24 24 24 24 24 24 24 25 25 25 25 25 26 26 27 28 29 29 30 30 30 30 31 31 31 30 31 31 31 32 32 32 33 33 33 34 35 35 35 36 36 37 38 39 41 43 44 45 46 47 47 43 37 33 35 37 36 32 29 29 31 33 33 34 34 33 30 28 27 26 25 25
22 22 22 22 22 23 23 23 23 23 23 23 24 24 24 24 24 25 25 25 25 25 25 26 26 26 27 28 28 29 29 29 29 30 30 30 30 30 30 30 30 31 31 31 31 31 31 31 32 32 32 32 32 32 32 33 34 34 35 36 36 36 37 36 32 28 26 25 26 26 24 23 24 27 29 29 30 31 30 28 27 27 26 25 24
22 22 22 22 23 23 23 23 24 24 24 24 24 24 24 25 25 25 25 25 25 26 26 26 26 27 27 28 28 29 29 29 29 29 29 29 29 29 29 29 29 30 29 29 29 30 30 30 30 30 29 29 28 28 29 29 30 30 29 30 29 29 27 24 18 16 18 20 20 20 18 18 21 24 25 26 26 27 27 26 26 25 24 24 23
23 22 22 23 23 23 23 23 23 23 24 24 24 24 24 24 24 24 25 25 26 26 26 26 27 27 28 28 29 29 29 29 29 28 28 28 28 28 28 28 28 28 28 29 29 29 29 28 28 27 27 26 26 26 26 26 26 25 25 25 25 24 21 14 7 2 8 14 17 18 17 18 19 20 21 22 24 24 24 23 23 23 22 22 21
22 22 22 22 22 22 22 22 22 23 23 24 24 24 24 24 24 25 25 25 26 26 27 28 28 29 29 29 30 29 28 27 27 27 27 27 27 27 27 27 27 27 27 28 28 27 27 26 25 25 25 25 25 25 25 23 22 22 21 21 21 19 17 12 7 4 8 13 17 17 16 16 16 17 19 21 22 22 21 20 20 20 20 19 18
22 22 22 22 21 22 22 22 23 23 23 23 24 24 24 24 25 25 26 26 27 27 28 28 29 29 28 28 27 27 26 26 26 26 26 26 26 27 27 27 27 26 26 26 26 25 25 24 24 24 24 24 24 24 23 21 21 20 20 19 17 15 12 9 5 1 5 10 12 13 13 14 15 17 18 19 19 19 17 16 17 17 17 16 16
22 22 21 21 21 21 22 22 23 23 23 23 24 24 24 25 25 26 26 26 27 27 27 27 27 26 26 25 25 25 25 25 25 25 26 26 26 26 26 26 25 25 25 24 24 24 24 24 23 23 23 23 22 22 21 20 19 19 17 16 14 12 10 7 6 5 6 8 9 10 11 13 13 14 15 15 15 15 15 14 14 15 15 15 15
20 20 20 20 20 21 21 22 22 22 23 23 23 24 24 25 25 26 26 26 26 26 26 25 24 24 24 24 24 24 24 24 25 25 25 25 25 26 25 25 25 25 24 24 24 24 24 23 22 22 22 21 21 20 19 19 18 17 16 14 12 10 8 7 6 5 6 6 7 8 9 10 11 11 11 11 12 13 13 13 14 14 14 14 15
20 19 19 20 20 20 20 21 21 21 22 22 22 23 23 24 24 24 24 24 24 24 23 23 23 23 23 23 23 24 24 24 24 25 25 24 25 25 24 24 24 24 24 24 24 23 23 22 21 21 21 20 19 18 18 17 17 16 15 13 11 9 8 7 6 6 6 6 7 7 7 8 9 10 10 10 11 12 13 13 14 14 14 15 16
19 19 18 18 19 20 20 20 20 20 21 21 21 22 22 23 23 23 22 22 22 22 21 21 22 22 23 23 24 24 24 24 24 24 24 24 24 23 23 23 23 23 22 22 22 22 21 21 21 20 19 19 18 17 16 16 15 15 14 12 11 9 8 7 7 7 6 7 7 7 8 8 9 10 11 12 12 13 13 14 14 15 16 16 17
20 19 19 19 20 20 20 21 21 21 21 21 21 22 22 22 22 22 21 21 21 20 20 21 21 22 22 23 23 23 23 23 23 23 23 23 23 23 23 22 22 22 21 21 20 20 20 20 20 19 19 18 18 17 16 15 15 14 13 13 11 10 9 9 8 8 8 8 9 9 10 10 11 12 12 13 13 14 14 14 15 15 16 17 17
20 20 21 21 21 21 21 22 22 22 22 22 22 22 22 22 22 21 21 21 21 21 21 22 22 23 23 23 23 22 22 22 22 23 23 23 23 22 22 21 21 21 20 20 19 19 19 19 19 19 18 18 17 17 16 15 15 14 14 13 12 11 10 9 9 9 9 9 10 11 11 12 12 12 13 13 13 14 14 15 15 16 16 17 17
20 20 20 20 20 20 21 21 22 22 22 23 23 23 23 22 22 22 22 22 22 23 23 23 23 23 23 23 23 23 22 22 22 22 22 22 21 20 20 20 19 19 19 19 19 19 19 19 19 19 18 18 17 17 16 16 16 15 15 13 12 11 10 10 10 10 10 10 11 11 12 12 13 13 13 13 14 14 14 15 16 16 17 17 17
19 19 19 19 19 19 19 20 20 20 21 21 22 22 22 22 22 23 23 23 23 23 23 23 23 23 23 23 22 22 22 22 21 20 20 20 19 19 18 18 18 19 19 19 19 19 19 19 19 19 19 18 18 17 17 17 16 16 15 14 13 12 12 12 12 11 12 12 12 13 13 13 13 14 14 15 15 16 16 16 16 17 17 18 18
Wind_Direction
213 214 215 216 217 217 219 221 222 223 224 225 226 228 231 232 233 235 236 237 238 238 239 239 239 240 241 242 243 245 247 249 249 249 248 247 247 247 247 247 247 248 248 249 251 253 252 251 252 256 257 259 264 266 268 274 278 280 284 287 290 294 295 297 302 308 310 312 316 321 321 319 317 316 318 320 318 315 314 314 313 311 309 308 306
213 214 215 216 217 218 219 221 223 224 225 227 228 229 231 232 234 235 236 238 239 240 241 242 242 241 242 243 245 245 247 248 250 250 249 248 248 248 248 248 248 249 249 249 250 252 253 253 252 254 257 259 261 263 265 268 272 276 279 282 285 288 291 293 297 301 304 306 306 309 312 316 316 314 315 316 317 317 317 317 316 315 312 311 310
214 214 215 216 217 218 220 221 223 224 226 227 228 229 231 232 234 234 236 239 240 241 242 243 244 244 244 245 246 247 248 249 250 250 250 249 249 249 250 249 249 249 250 250 250 251 253 254 254 254 256 258 260 262 264 265 268 272 276 279 281 284 287 289 292 295 298 300 301 301 303 306 310 311 312 312 314 315 317 317 317 316 314 313 313
215 215 216 217 217 218 220 221 223 224 226 227 229 230 232 233 234 235 237 239 241 242 243 244 244 245 245 246 247 247 248 249 249 250 250 251 251 251 251 251 250 250 251 252 252 251 252 254 255 255 255 257 259 261 263 265 267 270 273 277 278 280 283 285 286 290 293 295 297 298 299 301 304 306 309 311 311 312 315 316 316 316 316 314 314
215 216 217 218 219 220 221 222 223 224 226 228 229 231 233 234 235 236 237 239 240 242 243 244 245 246 246 247 247 248 248 249 249 249 250 251 252 252 253 253 252 252 252 253 253 253 253 254 255 255 256 257 258 261 263 264 267 268 271 274 276 278 281 282 283 285 288 291 293 295 297 299 301 302 304 307 309 310 311 313 314 315 316 315 314
215 217 220 220 221 222 223 224 225 225 227 228 230 232 233 234 235 237 238 239 240 241 242 243 245 246 247 248 248 248 249 249 248 249 249 250 252 253 254 254 254 253 252 253 253 253 253 254 254 255 256 257 258 260 262 264 265 267 268 271 273 275 277 279 281 282 284 288 291 293 295 296 298 299 300 301 303 306 308 309 310 312 314 314 313
217 219 222 223 223 224 224 224 225 226 227 228 230 231 233 234 235 236 237 238 239 240 241 243 245 246 247 248 248 248 249 249 248 248 249 250 251 253 254 254 254 254 253 252 252 252 253 253 254 255 256 257 258 260 261 263 264 265 267 268 270 272 274 276 278 280 282 284 287 290 292 294 295 296 298 299 300 302 304 305 306 308 310 312 312
219 221 222 224 225 225 225 225 225 225 227 227 229 230 232 233 234 235 236 237 239 240 241 243 245 246 247 248 248 248 248 248 248 248 248 249 251 252 253 254 255 255 254 253 252 252 253 253 254 255 256 257 258 259 261 262 264 265 265 267 268 270 272 274 276 278 281 283 285 287 289 291 292 294 295 296 296 297 300 301 303 305 307 309 310
220 221 223 224 226 226 226 227 226 226 226 227 229 230 231 232 233 234 235 237 239 240 242 243 244 245 246 247 247 247 247 247 247 247 247 248 250 251 253 254 254 255 255 254 253 253 253 254 255 256 257 257 258 259 260 261 263 264 265 266 267 268 270 272 274 276 279 281 283 285 287 288 289 290 291 291 292 294 297 299 300 302 305 307 308
221 223 224 225 226 227 228 229 228 227 227 228 229 230 231 232 233 234 235 236 238 239 241 242 243 244 245 245 246 247 248 249 248 247 247 248 250 252 253 254 254 255 255 255 254 255 254 255 256 256 257 257 258 258 259 261 262 264 265 266 266 268 269 270 272 274 276 278 280 282 284 285 286 286 287 288 291 292 294 296 298 300 303 304 306
223 225 226 227 227 227 228 229 229 229 229 229 230 231 231 232 233 234 235 235 237 239 239 240 241 243 244 244 245 246 249 250 248 247 247 248 250 252 253 254 254 255 256 256 256 256 256 256 257 257 257 258 259 259 259 261 262 263 264 265 266 267 269 270 271 273 274 276 278 279 281 282 283 284 285 286 288 289 291 293 296 298 300 302 305
226 227 228 229 229 228 228 229 230 230 230 230 231 231 231 232 233 234 234 234 236 237 238 239 240 242 243 243 244 246 249 249 248 248 248 248 250 252 254 255 255 256 256 257 257 258 258 259 259 260 260 259 260 260 261 261 263 264 265 265 266 266 268 269 270 272 273 274 276 277 279 280 282 283 284 285 286 287 288 290 292 295 297 299 302
229 228 229 230 230 230 230 230 230 231 231 231 231 231 232 232 233 234 234 235 235 236 238 239 240 241 242 242 243 246 248 248 248 248 249 249 250 252 255 256 256 257 257 258 258 259 259 260 261 262 262 261 261 262 262 263 263 264 265 266 266 266 267 268 269 271 273 274 275 276 277 279 280 281 283 285 286 286 287 288 290 292 294 296 298
230 229 228 229 230 231 231 231 230 231 231 231 231 231 232 233 234 235 235 235 236 237 238 239 241 242 243 244 245 246 248 248 248 249 251 251 251 253 256 257 258 258 259 259 259 260 260 261 261 262 263 263 263 263 263 263 264 265 265 266 267 267 268 268 269 270 271 273 274 275 276 277 279 281 282 284 284 285 286 287 289 291 293 295 297
231 230 228 227 229 231 231 231 231 231 231 231 232 232 233 234 234 234 235 236 236 238 239 240 242 243 244 245 247 248 249 249 249 250 252 253 253 255 258 259 260 261 260 260 261 262 262 262 263 264 264 265 265 264 264 265 264 265 265 266 267 268 269 269 270 270 270 272 273 275 275 276 278 280 282 282 283 284 286 287 290 292 293 295 296
231 231 228 228 229 230 230 230 231 230 230 230 231 232 232 233 234 234 235 236 238 239 240 241 242 243 244 246 248 250 252 251 250 252 253 253 255 258 260 261 262 263 263 263 263 264 264 264 265 266 265 266 266 265 265 266 265 265 265 266 267 268 269 270 270 270 270 272 273 274 274 275 276 278 280 281 281 282 284 285 287 289 291 293 293
230 230 229 228 229 228 228 228 229 229 229 229 229 231 232 232 233 234 234 236 237 238 239 241 242 244 246 248 249 252 254 253 253 254 254 254 256 259 260 261 263 265 265 265 266 266 266 266 267 267 267 267 267 266 265 266 266 266 266 267 268 269 270 271 270 269 269 270 271 272 273 274 274 276 277 279 279 279 280 282 284 286 288 289 290
229 229 229 229 229 228 226 227 228 228 228 228 228 229 230 231 232 233 234 235 237 239 241 243 245 247 248 250 251 253 255 255 255 255 256 256 257 260 260 261 264 266 266 267 267 267 268 268 268 268 269 268 268 267 266 266 267 267 267 268 268 269 270 271 271 270 269 270 270 271 271 272 273 274 275 276 276 277 278 279 281 283 284 286 287
229 230 231 231 230 228 226 227 228 229 229 228 227 228 229 230 231 233 235 236 238 240 243 245 247 249 251 252 254 255 257 258 257 258 259 259 260 262 263 263 265 267 267 267 268 269 269 269 268 268 269 269 268 268 267 267 267 268 269 268 268 269 270 271 271 271 271 270 270 270 270 271 272 273 273 273 274 275 276 277 278 279 281 283 285
230 230 231 231 230 228 227 227 228 230 230 229 228 228 229 230 232 234 236 238 240 241 244 246 248 251 252 254 256 257 259 260 261 260 261 261 261 262 264 265 266 267 268 268 269 269 270 270 270 269 269 269 269 269 268 268 268 269 269 269 270 271 271 271 270 271 271 270 270 269 270 270 270 271 272 271 272 274 275 276 276 276 278 280 282
230 230 231 232 231 229 229 229 229 230 231 231 230 230 230 231 233 234 237 239 240 242 244 247 250 252 254 256 258 259 260 262 262 262 262 263 263 263 265 266 267 267 268 269 270 271 271 271 272 271 270 270 269 269 269 268 268 269 270 271 272 272 272 271 271 271 271 270 270 269 269 270 270 270 270 270 271 272 273 273 273 274 275 277 279
231 231 231 232 232 230 230 230 230 231 232 232 232 232 232 233 234 236 237 239 241 243 245 248 251 254 256 257 259 260 261 262 263 263 263 264 264 264 266 268 268 268 269 269 271 272 272 272 273 272 271 271 270 269 269 269 269 270 271 272 273 272 272 272 272 271 270 270 270 269 269 269 269 269 269 269 269 270 271 271 271 271 273 276 277
232 232 231 232 232 231 232 232 233 233 233 233 233 234 234 234 235 237 238 240 242 244 246 249 252 255 257 259 260 262 263 264 265 265 265 265 265 265 267 268 268 269 270 271 272 273 274 274 274 274 273 273 272 271 271 271 272 272 273 273 273 272 272 273 273 272 271 270 269 269 269 268 268 268 268 268 269 269 269 270 270 270 272 275 276
234 232 231 231 231 232 233 234 235 235 235 235 235 235 236 236 237 238 240 242 244 246 249 251 253 256 258 260 263 264 266 267 267 267 266 266 266 267 268 269 269 269 270 272 273 274 274 275 275 275 275 274 274 274 273 273 273 274 273 273 272 272 272 273 272 272 271 270 269 268 268 267 267 267 267 267 267 267 268 269 270 269 271 274 275
233 232 231 230 230 232 234 235 236 236 236 236 237 237 237 237 239 240 242 244 246 249 251 254 255 257 260 262 265 267 268 270 270 270 269 268 268 269 269 269 269 270 271 272 274 275 275 276 276 276 276 276 276 276 276 275 274 274 273 273 273 272 272 272 272 271 271 270 269 268 268 267 266 267 266 265 265 266 266 268 268 268 269 270 272
235 233 232 230 230 232 235 236 236 237 237 238 238 239 239 239 240 242 244 246 248 251 254 256 258 260 262 264 266 268 269 271 272 272 272 271 271 271 270 270 270 271 271 272 274 275 276 276 277 277 277 277 278 278 278 277 276 275 274 273 273 272 271 271 271 270 270 270 269 268 268 267 265 265 264 264 263 263 264 265 266 265 265 266 267
236 234 233 233 233 234 236 236 236 238 239 239 239 240 241 241 242 244 246 248 250 253 255 258 260 262 263 264 266 267 269 271 272 273 273 274 274 274 273 273 273 273 273 273 274 275 276 276 277 278 278 278 279 279 279 279 278 277 276 275 273 272 271 271 271 270 269 269 268 267 267 265 264 262 262 262 261 261 261 262 262 262 261 261 263
234 234 235 236 236 237 237 237 237 239 240 241 242 242 242 243 244 246 249 251 253 255 256 258 260 262 263 265 266 266 268 269 271 273 275 276 276 277 277 276 276 275 275 275 275 276 276 277 279 280 280 280 281 281 281 281 280 279 278 276 275 274 272 271 271 270 270 269 267 266 265 264 262 260 259 259 259 258 259 259 259 258 258 259 261
233 234 236 237 237 238 238 238 238 239 240 242 245 245 244 245 247 249 251 254 256 257 257 258 260 262 264 266 268 268 270 271 273 275 277 278 279 279 279 279 279 279 278 278 278 278 278 279 280 281 281 282 282 282 282 282 281 280 278 278 277 276 274 272 271 270 269 268 266 265 263 262 260 259 258 257 256 256 256 256 256 256 256 257 259
235 235 237 240 238 237 238 239 238 239 239 240 243 245 245 247 249 251 252 254 256 258 259 259 261 263 265 267 270 271 272 274 275 276 278 279 280 280 280 280 280 280 281 281 281 280 280 281 281 281 282 282 282 282 282 282 281 280 279 279 278 276 275 273 271 270 269 267 265 263 261 259 258 257 256 255 254 254 253 253 253 254 254 256 258
238 237 239 242 240 239 241 239 237 239 240 238 238 242 244 246 250 253 254 254 256 258 260 262 265 266 267 269 271 272 273 274 275 277 279 281 281 282 282 282 282 282 282 282 281 281 281 282 282 282 282 283 283 283 283 282 282 281 281 279 278 277 275 274 273 272 271 269 266 264 260 258 256 254 253 253 252 251 250 250 251 252 252 254 256
240 238 240 241 240 241 244 241 237 239 243 240 239 241 243 245 250 254 256 256 257 258 260 263 266 268 269 270 272 273 275 277 279 280 282 283 284 284 285 285 285 286 286 285 284 284 283 283 283 284 284 284 284 285 284 284 283 282 281 280 278 277 276 274 273 271 269 267 265 262 259 256 254 253 251 250 248 247 246 247 247 248 249 252 255
240 239 239 240 239 241 244 242 240 243 245 243 242 244 245 247 249 252 255 257 259 260 261 263 264 266 269 271 273 275 278 280 282 283 284 285 286 287 287 286 287 287 287 287 286 286 286 286 286 287 287 287 287 287 286 285 284 283 282 281 280 278 277 275 273 271 269 267 264 260 257 254 252 251 250 247 245 243 242 243 243 244 247 250 254
239 238 238 238 239 240 242 242 243 245 246 244 244 246 247 248 250 252 254 257 260 262 265 266 267 268 270 272 275 277 279 281 283 284 285 286 287 288 287 287 287 287 288 289 289 289 290 290 290 291 291 290 290 289 288 287 287 286 284 283 282 280 278 275 273 271 269 267 264 259 255 251 249 249 248 246 243 240 238 237 238 241 244 248 252
238 238 238 238 239 241 242 242 243 245 245 245 246 248 249 250 252 254 256 258 260 262 265 267 270 271 272 274 276 278 280 281 283 284 286 288 289 289 288 288 289 290 290 291 292 293 294 294 294 294 294 294 293 293 292 291 290 289 288 286 285 283 281 278 275 272 269 265 260 255 250 246 245 245 244 242 238 235 233 233 235 238 242 247 251
238 238 239 239 240 242 243 244 245 246 246 247 249 250 251 252 254 256 258 259 260 262 264 267 270 272 274 276 278 279 280 282 284 285 287 289 291 291 291 291 291 292 293 294 295 296 296 296 297 297 297 296 296 295 295 294 293 292 290 289 288 288 286 283 278 274 268 261 254 248 243 240 240 241 240 237 233 230 227 228 232 237 242 246 250
239 239 241 241 242 243 244 245 246 246 247 249 251 253 255 256 256 257 258 260 262 264 266 268 271 273 275 277 278 279 281 283 285 287 289 291 291 292 291 292 292 293 294 295 297 297 298 299 300 300 300 300 299 299 299 298 296 295 293 292 292 291 290 287 284 277 267 257 248 242 238 238 239 239 235 231 228 224 222 224 230 235 239 244 249
240 241 242 242 242 243 244 245 246 247 249 250 252 255 257 258 258 258 259 261 263 266 268 270 273 275 276 277 279 280 282 284 287 289 290 291 291 291 291 292 293 293 295 296 298 299 301 302 303 303 303 303 303 304 304 303 303 301 300 300 299 296 293 289 284 275 263 251 241 236 236 241 242 234 226 221 219 218 218 222 228 233 237 244 249
240 241 243 242 242 242 244 245 247 249 250 252 253 254 256 257 258 259 261 263 266 268 269 271 273 276 277 279 281 282 283 285 287 288 288 289 290 290 291 292 293 295 296 297 299 301 302 303 304 305 304 304 306 308 310 311 312 313 314 314 312 308 304 297 283 264 248 238 230 227 233 238 229 217 212 213 214 215 217 223 229 233 238 243 248
239 241 244 244 243 243 246 248 249 250 251 252 253 254 256 257 259 261 263 265 267 268 268 270 273 276 279 280 281 283 284 285 286 287 287 288 289 290 291 293 295 296 297 298 300 301 302 302 303 304 305 306 309 313 315 318 320 323 326 329 330 329 326 318 297 259 236 226 220 218 220 214 206 204 207 210 213 216 221 226 231 236 240 244 248
241 243 245 246 245 246 249 251 252 252 252 253 254 256 258 259 261 262 264 265 266 267 269 270 273 276 278 279 280 281 282 283 284 285 287 288 289 291 292 294 296 297 298 299 300 301 302 302 303 303 305 307 311 314 317 320 324 327 331 338 344 349 353 355 351 231 199 195 195 196 194 193 196 204 210 212 214 218 224 230 236 240 243 246 248
243 245 247 248 248 249 250 251 253 255 255 255 255 256 258 259 261 261 262 264 265 268 271 272 273 274 276 277 278 278 279 281 282 285 287 289 291 292 293 295 296 297 298 299 300 301 302 303 304 304 305 307 309 312 315 318 321 324 329 335 343 354 7 22 45 113 159 171 177 182 187 195 205 214 217 218 220 224 230 238 243 244 246 247 246
244 246 248 250 251 251 251 251 253 254 255 255 255 256 257 258 260 262 264 266 268 269 271 272 273 274 275 276 277 277 278 280 282 285 288 290 291 293 294 295 296 296 295 296 298 300 302 304 306 307 308 308 309 311 313 315 316 318 323 328 331 337 349 0 1 271 209 203 203 205 210 218 225 228 227 226 227 230 238 246 248 246 247 247 244
243 244 246 248 251 253 253 253 253 254 254 254 256 258 259 261 262 264 267 269 270 270 270 270 271 272 273 274 275 277 279 280 282 285 288 289 291 292 293 293 294 294 293 294 295 298 301 303 305 306 307 308 309 310 312 313 314 316 321 324 326 327 328 326 314 290 262 245 239 237 237 239 239 237 233 231 233 238 246 250 248 246 246 245 244
245 246 247 250 251 253 254 255 254 254 254 255 257 259 261 263 265 268 269 270 269 269 269 269 269 269 270 272 275 278 280 282 283 285 287 288 290 291 291 292 293 293 292 292 293 295 297 299 301 303 305 306 307 309 311 312 313 314 317 321 324 323 318 309 298 286 275 264 257 252 246 243 240 238 237 238 242 246 250 251 248 246 246 246 247
247 250 251 251 251 252 254 256 256 257 258 259 261 263 265 266 268 269 269 269 268 267 267 268 268 269 271 273 275 278 280 282 284 285 287 288 290 291 290 291 292 292 291 292 293 293 293 294 295 298 301 303 305 307 309 311 311 311 312 315 317 318 315 307 296 285 275 268 262 253 244 241 241 242 244 247 249 251 253 253 251 251 251 252 252
246 248 250 251 252 253 254 256 258 259 261 263 265 267 268 269 269 269 268 268 267 266 266 267 269 272 274 276 277 279 280 282 284 286 287 289 290 290 290 291 292 292 292 293 293 292 290 290 292 294 297 299 302 304 306 307 308 308 308 309 310 310 308 303 296 287 276 268 263 259 253 251 252 252 252 253 254 256 257 257 256 256 256 255 256
246 249 252 254 255 255 256 257 259 260 262 264 265 266 267 267 267 266 265 265 265 266 267 269 271 274 276 278 280 281 282 283 285 287 288 288 289 288 289 289 290 291 291 291 291 290 289 289 291 293 294 296 298 300 300 301 302 303 303 304 304 303 300 295 289 283 275 269 267 267 265 262 260 260 259 259 259 260 260 260 261 261 260 258 258
250 253 256 257 258 258 258 259 260 261 262 263 264 265 264 263 262 261 261 261 262 265 267 269 271 273 275 277 279 281 283 285 287 288 289 289 288 287 287 288 288 288 287 287 288 288 288 289 290 292 292 293 294 294 294 294 294 295 296 297 296 295 293 289 285 280 275 271 270 270 270 269 268 266 264 262 262 263 263 263 263 264 264 262 259
253 256 257 259 260 261 261 261 262 263 264 264 263 263 262 261 260 260 261 262 263 266 268 270 271 273 274 276 278 281 283 285 287 288 288 288 288 288 287 287 287 287 286 287 288 288 287 288 288 288 288 289 289 289 289 288 287 287 287 288 287 286 285 283 281 279 278 276 274 272 271 271 272 271 269 267 266 267 268 267 265 265 264 263 261
255 256 257 258 259 259 260 262 263 263 264 264 263 261 260 259 259 260 262 263 264 266 268 270 271 272 273 275 277 280 282 284 285 286 285 286 287 287 286 286 287 287 286 286 287 288 287 287 287 286 285 285 285 285 285 285 283 282 281 280 279 279 279 279 279 279 278 277 276 275 273 272 272 273 273 272 271 269 269 268 267 265 263 262 261